Regional Weather Roundup
Issued by NWS Spokane, WA

Home | Current Version | Previous Version | Text Only | Print | Product List | Glossary On
Versions: 1 2 3 4 5 6 7 8 9 10 11 12 13 14 15 16 17 18 19 20 21 22 23 24 25 26 27 28 29 30 31 32 33 34 35 36 37 38 39 40 41 42 43 44 45 46 47 48 49 50
000
NZUS01 KOTX 252300
RWROTX
EASTERN WASHINGTON/NORTHERN IDAHO ROUNDUP
NATIONAL WEATHER SERVICE, SPOKANE WA
400 PM PDT WED MAY 25 2016

Note: "fair" indicated few or no clouds below 12,000 feet with no
significant weather and/or obstructions to visibility.

...NORTHEAST WASHINGTON AND NORTHERN IDAHO PANHANDLE...

CITY           SKY/WX    TMP DP  RH WIND       PRES   REMARKS
SPOKANE INTL   PTSUNNY   70  41  34 W17       29.98F
SPOKANE DOWNTO PTSUNNY   73  44  35 SW15G21   29.98F
COEUR D ALENE  MOSUNNY   70  48  46 W14G22    29.96F
DEER PARK      PTSUNNY   70  43  37 W12       29.97F

...SOUTHEAST WASHINGTON AND SOUTHERN IDAHO PANHANDLE...

CITY           SKY/WX    TMP DP  RH WIND       PRES   REMARKS
WALLA WALLA    MOSUNNY   74  45  35 SW10      30.00F
PULLMAN/MOSCOW MOSUNNY   68  45  43 W14       30.03F
LOWELL           N/A     64  50  60 VRB3      30.02F

...COLUMBIA BASIN...

CITY           SKY/WX    TMP DP  RH WIND       PRES   REMARKS
EPHRATA        SUNNY     78  42  27 W14       29.94F
MOSES LAKE     MOSUNNY   78  43  28 SW12G21   29.95F
TRI CITIES     SUNNY     79  39  23 S10G20    29.97F
HERMISTON      SUNNY     78  42  27 W14       29.97F
PENDLETON      SUNNY     73  41  31 W14G20    29.99F

...EAST SLOPES CASCADES...

CITY           SKY/WX    TMP DP  RH WIND       PRES   REMARKS
THE DALLES     LGT RAIN  71  45  39 W21G35    30.06S
YAKIMA         MOSUNNY   80  46  30 NW9       29.97F
ELLENSBURG     SUNNY     70  44  39 NW29G35   30.00F
WENATCHEE      SUNNY     78  40  25 NW14G20   29.94F
OMAK           SUNNY     79  42  26 SW9G17    29.91F

...SOUTHERN BRITISH COLUMBIA...

CITY           SKY/WX    TMP DP  RH WIND       PRES   REMARKS

...WESTERN MONTANA...

CITY           SKY/WX    TMP DP  RH WIND       PRES   REMARKS
MISSOULA       PTSUNNY   65  42  43 NW5       29.98S

...NEIGHBORING CITIES...

CITY           SKY/WX    TMP DP  RH WIND       PRES   REMARKS
SEATTLE        PTSUNNY   62  49  62 SW15      30.18S



USA.gov is the U.S. government's official web portal to all federal, state and local government web resources and services.